www.pogodaiklimat.ru

Погода и климат >> Архив погоды >> Мексика >> Sn. Cristobal Las Casas


ПОГОДА в Sn. Cristobal Las Casas

  • Прогноз погоды в Sn. Cristobal Las Casas
  • Монитор погоды в Sn. Cristobal Las Casas
  • Климат города

АРХИВ ПОГОДЫ в Sn. Cristobal Las Casas

Время (UTC), дата Ветер
(напр.,м/с)
 
Видим.   Явления Облачность Т
(С)
Тd
(С)
f
(%)
Тe
(С)
Тes
(С)
Комфортность P
(гПа)
Po
(гПа)
Тmin
(С)
Tmax
(С)
R
(мм)
R24
(мм)
S
(см)
00 14.09 СВ 1 10 км 8/1 50 м
[Frnb Ac cuf]
+18.6 +18.0 96 +21 +21 комфорт 1009.4 793.4 +12.0 +25.4
03 14.09 ЮВ 1 3000 м 6/6 90 м
[Frnb]
+17.0 +16.4 96 +18 +18 1011.8 795.7
06 14.09 ЮВ 1 3000 м 4/4 30 м
[Frnb]
+15.8 +15.5 98 +16 +16 1013.3 795.8 +25.4
09 14.09 штиль 0 3000 м ясно +14.6 +14.0 96 +14 +14 1012.4 794.0
12 14.09 ЮВ 1 8000 м 8/8 30 м
[Frnb Ac lent]
+14.8 +14.5 98 +15 +15 1012.9 793.7 +13.6
15 14.09 ЮВ 1 10 км 6/0
[Cs]
+19.6 +18.8 95 +23 +33 комфорт 1014.0 794.5
18 14.09 В 1 10 км 4/4 210 м
[Frnb]
+23.2 +21.5 90 +31 +46 очень
душно
1012.7 794.4 +13.6 +24.4
21 14.09 З 3 10 км 6/6 600 м
[St]
+21.6 +17.1 76 +26 +29 душно 1008.7 792.7
00 15.09 СВ 2 10 км 6/6 300 м
[St]
+18.4 +15.5 83 +19 +19 1008.5 793.3 +13.6 +24.6
03 15.09 штиль 0 3000 м 1/1 150 м
[St]
+15.8 +14.6 93 +16 +16 1011.0 795.1
06 15.09 штиль 0 3000 м 4/0 2000 м
[Ac trans]
+14.0 +12.8 92 +14 +14 1012.9 795.4 +13.6 +24.6
09 15.09 штиль 0 3000 м 3/3 120 м
[St]
+13.2 +12.6 96 +13 +13 1013.4 794.2
12 15.09 штиль 0 10 км 4/4 60 м
[St]
+11.6 +11.3 98 +11 +11 1015.8 795.0 +10.8 +24.6
15 15.09 штиль 0 10 км ясно +20.8 +15.3 71 +24 +36 комфорт 1016.8 795.6
18 15.09 СВ 2 10 км 6/6 630 м
[St]
+22.8 +17.8 73 +28 +36 душно 1014.3 795.0 +10.8 +23.6
21 15.09 В 2 10 км 8/5 700 м
[Cu hum As op Ci]
+23.4 +17.8 71 +29 +33 душно 1010.0 793.1
00 16.09 СВ 1 10 км 8/1 300 м
[St As op Ci]
+19.2 +16.5 84 +22 +22 комфорт 1008.6 793.3 +10.8 +24.2
03 16.09 В 1 3000 м 1/1 150 м
[St]
+16.2 +15.0 93 +17 +17 1010.7 795.2
06 16.09 В 3 3000 м 8/8 60 м
[St]
+15.6 +15.3 98 +15 +15 1011.7 794.9 +10.8 +24.2
09 16.09 штиль 0 3000 м ясно +13.0 +12.7 98 +12 +12 1012.5 794.0
12 16.09 штиль 0 10 км ясно +11.2 +10.9 98 +10 +10 1015.2 794.6 +10.5 +24.2
15 16.09 штиль 0 10 км 3/0
[Ci fib]
+18.4 +14.6 79 +19 +31 опасность
простуды
1016.0 794.9
18 16.09 В 1 10 км 6/6 210 м
[St]
+25.2 +15.8 56 +34 +44 очень
душно
1013.5 794.3 +10.5 +25.8
21 16.09 Ю 1 8000 м {дождь} 8/8 90 м
[St]
+16.8 +16.2 96 +18 +20 1012.0 793.9 25
00 17.09 штиль 0 10 км {дождь} 6/6 50 м
[St]
+18.4 +17.8 96 +19 +19 1010.4 793.7 25
03 17.09 штиль 0 3000 м 4/4 30 м
[St]
+15.4 +15.1 98 +15 +15 1012.3 795.5
06 17.09 штиль 0 3000 м 3/3 60 м
[St]
+14.6 +14.3 98 +14 +14 1013.8 795.2 +10.5 +25.8
09 17.09 штиль 0 3000 м 6/0 2000 м
[As trans]
+14.0 +13.7 98 +14 +14 1014.0 794.7
12 17.09 штиль 0 8000 м 8/3 60 м
[St Ac trans]
+13.8 +13.5 98 +13 +13 1015.8 795.3 +12.8 +25.8
15 17.09 штиль 0 10 км 6/3 300 м
[St As trans]
+17.8 +15.5 86 +18 +24 1017.1 796.1
18 17.09 СВ 1 10 км 3/3 270 м
[St]
+23.0 +20.9 88 +30 +47 очень
душно
1014.3 795.1 +12.8 +23.6
21 17.09 СВ 2 10 км 4/4 750 м
[Cu med, cong]
+23.2 +17.3 69 +28 +35 душно 1010.7 793.4
00 18.09 СВ 1 10 км 6/6 300 м
[Frnb]
+20.0 +16.3 79 +24 +24 комфорт 1009.5 793.9 +12.8 +24.4
03 18.09 СВ 1 3000 м ясно +16.4 +14.6 89 +17 +17 1011.4 795.8
06 18.09 штиль 0 3000 м ясно +14.4 +13.3 93 +14 +14 1012.9 795.9 +24.4
12 18.09 штиль 0 10 км 6/0
[Ci]
+10.5 +10.2 98 +10 +10 1016.5 795.3 +9.4 +24.4
15 18.09 ЮЗ 1 8000 м 10/10 300 м
[Frnb]
+15.0 +12.5 85 +16 +16 1018.5 796.2
18 18.09 СВ 2 10 км 8/8 330 м
[Frnb]
+22.0 +19.5 86 +28 +32 душно 1016.0 795.2 +9.4 +23.4
21 18.09 СВ 3 10 км 8/8 450 м
[Frnb]
+20.9 +16.6 76 +25 +27 комфорт 1012.0 793.5
00 19.09 СВ 2 10 км слабая морось 9/9 200 м
[Frnb]
+17.9 +16.5 92 +18 +18 1010.4 793.7 0.6
03 19.09 СВ 2 3000 м ясно +15.5 +14.5 94 +15 +15 1011.4 794.9
06 19.09 штиль 0 3000 м 3/3 210 м
[]
+14.7 +13.0 90 +14 +14 1013.0 795.2 +23.6
09 19.09 штиль 0 3000 м ясно +12.7 +11.8 94 +12 +12 1012.3 793.3
12 19.09 штиль 0 10 км 9/9 <50 м
[Frnb]
+12.3 +11.5 95 +12 +12 1015.1 794.4 +11.4
15 19.09 штиль 0 10 км 9/9 210 м
[Frnb]
+15.1 +13.7 91 +15 +16 1017.3 795.7
18 19.09 СВ 2 10 км 9/9 500 м
[Frnb]
+19.3 +14.9 76 +21 +23 комфорт 1015.9 795.1 +11.4 +20.2
21 19.09 СВ 2 10 км слабая морось 10/10 120 м
[Frnb]
+20.4 +19.4 94 +25 +25 комфорт 1011.4 792.8 0.0
00 20.09 штиль 0 6000 м {морось} 9/3 50 м
[Frnb Ac As]
+16.5 +16.1 97 +16 +16 1010.9 793.3 2
03 20.09 В 1 3000 м слабая морось 10/10 30 м
[Frnb]
+15.2 +14.9 98 +16 +16 1012.9 795.1 4
06 20.09 штиль 0 3000 м слабая морось 10/10 <50 м
[Frnb]
+14.8 +14.5 98 +14 +14 1013.0 794.7 8
09 20.09 штиль 0 3000 м {морось} 5/5 30 м
[Frnb]
+13.8 +13.5 98 +13 +13 1013.4 793.9 0.2
12 20.09 штиль 0 3000 м {морось} 10/10 30 м
[Frnb]
+12.9 +13 +13 1014.5 794.1 +23.2 0.2
15 20.09 штиль 0 10 км 6/1 150 м
[St Cs]
+17.0 +17 +27 1016.4 795.4
18 20.09 штиль 0 10 км 5/5 150 м
[Cu med, cong]
+23.0 +21.7 92 +31 +44 очень
душно
1014.0 794.7 +12.2 +23.8
21 20.09 штиль 0 6000 м слабый дождь {морось} 10/4 120 м
[Frnb As op]
+17.2 +16.6 96 +17 +19 1011.6 793.6 7

 

Местоположение метеостанции Sn. Cristobal Las Casas (Мексика): широта 16.75 долгота -92.63 высота над уровнем моря 2276 м.

В архиве по умолчанию представлена погода в Sn. Cristobal Las Casas за последнюю неделю. Архивные данные за месяц целиком и за предыдущие месяцы, начиная с января 2011 года, Вы можете получить, выбрав интересующий диапазон дат из раскрывающегося списка и нажав кнопку "Ввод!".


*Определитесь, кто Вы:
робот инопланетянин человек

Внимание! Время в таблицах - всемирное. Для получения местного времени необходимо прибавить поправку, которая в Sn. Cristobal Las Casas равна -6 ч.

Смотрите также архив погоды в соседних городах и на ближайших метеорологических станциях:

Погода в Tuxtla Gutierrez (Мексика) (53 км)
Погода в Comitan (Мексика) (77 км)
Погода в Villahermosa (Мексика) (140 км)
Погода в Arriaga (Мексика) (147 км)
Погода в Huehuetenango (Гватемала) (202 км)
Погода в Tapachula City (Мексика) (208 км)
Погода в Coatzacoalcos (Мексика) (243 км)
Погода в Salina Cruz (Мексика) (280 км)
Погода в Flores (Гватемала) (293 км)
Погода в Guatemala (Гватемала) (331 км)

Пояснения к столбцам:

Ветер - указаны скорость ветра в м/с - средняя за 10 мин, порывы в срок и между сроками (в фигурных скобках) и направление, откуда дует ветер: С - северный, СВ - северо-восточный, В - восточный, ЮВ - юго-восточный, Ю - южный, ЮЗ - юго-западный, З - западный, СЗ - северо-западный.
Видимость - горизонтальная дальность видимости в метрах или километрах. При видимости от 1 до 10 км при отсутствии осадков обычно наблюдается дымка, при ухудшении видимости до 1 км и менее - туман. В сухую погоду видимость может ухудшаться дымом, пылью или мглою.
Явления - указаны атмосферные явления, наблюдавшиеся в срок или в последний час перед сроком; фигурными скобками обозначены явления, наблюдавшиеся между сроками (за 1-3 часа до срока); квадратными скобками обозначены град или гололедные отложения с указанием их диаметра в мм.
Облачность - указаны через наклонную черту общая и нижняя облачность в баллах и высота нижней границы облаков в метрах; квадратными скобками обозначены формы облаков: Ci - перистые, Cs - перисто-слоистые, Cc - перисто-кучевые, Ac - высококучевые, As - высокослоистые, Sc - слоисто-кучевые, Ns - слоисто-дождевые, Cu - кучевые, Cb - кучево-дождевые. Подробнее классификацию облаков см. в Атласе облаков (PDF).
T - Температура воздуха - температура, измеренная на высоте 2 м над землей.
Td - Температура точки росы - температура, при понижении до которой содержащийся в воздухе водяной пар достигнет насыщения.
f - Относительная влажность воздуха - влажноcть воздуха, измеренная на высоте 2 м над землей.
Te - Эффективная температура - температура, которую ощущает одетый по сезону человек в тени. Характеристика душности погоды. При расчете учитывается влияние влажности воздуха и скорости ветра на теплоощущения человека.
Tes - Эффективная температура на солнце - температура, которую ощущает человек, с поправкой на солнечный нагрев. Характеристика знойности погоды. Зависит от высоты солнца над горизонтом, облачности и скорости ветра. Ночью, в пасмурную погоду, а также при ветре 12 м/с и более поправка равна нулю.
P - Атмосферное давление - приведенное к уровню моря атмосферное давление.
Po - Атмосферное давление - измеренное на уровне метеостанции атмосферное давление.
Tmin - Минимальная температура - минимум температуры воздуха на высоте 2 м над землей.
Tmax - Максимальная температура - максимум температуры воздуха на высоте 2 м над землей.
R - Количество осадков - Количество выпавших осадков за период времени, мм. При наведении курсора мыши на число - период времени, за который выпало указанное количество осадков.
R24 - Количество осадков - Количество выпавших осадков за 24 часа, мм.
S - Снежный покров - Высота снежного покрова, см. При наведении курсора мыши на число - состояние снежного покрова и степень покрытия местности в баллах.